Location: Shepherdstown, WV
(39.4326°N, 77.8042°W)
Time: 05:58:41
(UTC-04:00)

Vanguard 1 - Pass Details

Date: 02 August 2021
Orbit: 652 x 3831 km, 34.3° (Epoch: 24 September)

Event Time Altitude Azimuth Distance (km) Brightness Sun altitude
Rises 11:33:24 0° 241° (WSW) 2,961 12.4 58.6°
Reaches altitude 10° 11:35:35 10° 233° (SW) 2,108 11.8 58.9°
Maximum altitude 11:39:56 41° 162° (SSE) 1,154 11.8 59.6°
Drops below altitude 10° 11:46:03 10° 94° (E) 2,973 13.1 60.5°
Sets 11:49:42 0° 88° (E) 4,372 13.7 61.0°
